46.3°F
Current conditions from King Hill
Updated every 5 minutes
 
  Sunday April 20, 2014

Station Historical Data
Daily Summary for September 30, 2011 Units:  Metric    English   Both
« Previous Day
Next Day »
Daily Weekly Monthly Yearly Custom
  High: Low: Average:
Temperature: 20.5 °C 11.8 °C 14.8 °C
Dew Point: 13.5 °C 11.1 °C 12.1 °C
Humidity: 96% 61% 84%
Wind Speed: 16.1km/h 1.6km/h 5.8km/h
Wind Gust: 33.8km/h - -
Wind- - SSW
Pressure: 1004.6 hPa 998.5 hPa -
Precipitation: 0.3 mm    
Historical Graphs
 
 
Tabular Data for September 30, 2011
Time Temperature Dew Point Pressure Wind Wind Speed Wind Gust Humidity Daily Rainfall
00:00 13.9 °C 13.2 °C 998.5 hPa SW 4.8 km/h 12.9 km/h 95% 32.3 mm
00:05 13.9 °C 13.2 °C 998.5 hPa SW 1.6 km/h 11.3 km/h 95% 0 mm
00:10 13.9 °C 13.2 °C 998.5 hPa SW 4.8 km/h 11.3 km/h 95% 0 mm
00:15 13.9 °C 13.2 °C 998.5 hPa Calm   11.3 km/h 95% 0 mm
00:20 13.9 °C 13.2 °C 998.5 hPa Calm   6.4 km/h 95% 0 mm
00:25 13.8 °C 13.1 °C 998.5 hPa SW 3.2 km/h 9.7 km/h 95% 0 mm
00:30 13.8 °C 13.1 °C 998.5 hPa SW 3.2 km/h 9.7 km/h 95% 0 mm
00:35 13.8 °C 13 °C 998.5 hPa SW 1.6 km/h 9.7 km/h 95% 0 mm
00:40 13.8 °C 13 °C 998.5 hPa SW 3.2 km/h 11.3 km/h 95% 0 mm
00:45 13.9 °C 13.1 °C 998.5 hPa SSW 6.4 km/h 12.9 km/h 95% 0 mm
00:50 13.9 °C 13.2 °C 998.9 hPa SW 8 km/h 19.3 km/h 95% 0 mm
00:55 14 °C 13.4 °C 998.9 hPa SW 3.2 km/h 19.3 km/h 96% 0 mm
01:00 14 °C 13.4 °C 998.9 hPa SW 9.7 km/h 16.1 km/h 96% 0 mm
01:05 14 °C 13.4 °C 998.5 hPa SW 8 km/h 22.5 km/h 96% 0 mm
01:10 13.9 °C 13.1 °C 998.9 hPa SW 9.7 km/h 22.5 km/h 95% 0 mm
01:15 13.8 °C 13.1 °C 998.9 hPa SW 3.2 km/h 16.1 km/h 95% 0 mm
01:20 13.8 °C 13 °C 998.5 hPa SW 1.6 km/h 14.5 km/h 95% 0 mm
01:25 13.7 °C 12.9 °C 998.9 hPa SW 3.2 km/h 11.3 km/h 95% 0 mm
01:30 13.6 °C 12.8 °C 998.9 hPa SW 1.6 km/h 14.5 km/h 95% 0 mm
01:35 13.6 °C 12.8 °C 998.9 hPa SSW 1.6 km/h 14.5 km/h 95% 0 mm
01:40 13.6 °C 12.8 °C 998.9 hPa SSW 6.4 km/h 17.7 km/h 95% 0 mm
01:45 13.6 °C 12.8 °C 999.2 hPa SW 3.2 km/h 17.7 km/h 95% 0 mm
01:50 13.5 °C 12.7 °C 999.2 hPa SW 8 km/h 16.1 km/h 95% 0 mm
01:55 13.4 °C 12.7 °C 999.2 hPa SSW 6.4 km/h 24.1 km/h 95% 0 mm
02:00 13.4 °C 12.6 °C 998.9 hPa SW 6.4 km/h 24.1 km/h 95% 0 mm
02:05 13.3 °C 12.5 °C 998.9 hPa SW 6.4 km/h 19.3 km/h 95% 0 mm
02:10 13.2 °C 12.6 °C 998.9 hPa SW 4.8 km/h 20.9 km/h 96% 0 mm
02:15 13.2 °C 12.4 °C 999.2 hPa Calm   20.9 km/h 95% 0 mm
02:20 13.1 °C 12.3 °C 999.2 hPa SW 4.8 km/h 14.5 km/h 95% 0 mm
02:25 13.1 °C 12.3 °C 999.2 hPa SW 9.7 km/h 16.1 km/h 95% 0 mm
02:30 13.1 °C 12.3 °C 999.2 hPa SW 8 km/h 22.5 km/h 95% 0 mm
02:35 13 °C 12.2 °C 999.2 hPa SSW 8 km/h 22.5 km/h 95% 0 mm
02:40 12.9 °C 12.2 °C 999.5 hPa SW 3.2 km/h 17.7 km/h 95% 0 mm
02:45 12.9 °C 12.3 °C 999.5 hPa SW 4.8 km/h 17.7 km/h 96% 0 mm
02:50 12.9 °C 12.3 °C 999.5 hPa SSW 1.6 km/h 17.7 km/h 96% 0 mm
02:55 12.9 °C 12.3 °C 999.5 hPa Calm   16.1 km/h 96% 0 mm
03:00 12.9 °C 12.3 °C 999.5 hPa SW 3.2 km/h 16.1 km/h 96% 0 mm
03:05 12.9 °C 12.3 °C 999.5 hPa SSW 4.8 km/h 11.3 km/h 96% 0 mm
03:10 12.9 °C 12.3 °C 999.9 hPa SSW 4.8 km/h 12.9 km/h 96% 0 mm
03:15 12.9 °C 12.3 °C 999.5 hPa SW 1.6 km/h 12.9 km/h 96% 0 mm
03:20 12.8 °C 12.1 °C 999.9 hPa SW 8 km/h 14.5 km/h 95% 0 mm
03:25 12.7 °C 11.9 °C 999.9 hPa SW 3.2 km/h 14.5 km/h 95% 0 mm
03:30 12.6 °C 11.8 °C 999.9 hPa South 3.2 km/h 14.5 km/h 95% 0 mm
03:35 12.5 °C 11.7 °C 1000.2 hPa SSW 4.8 km/h 14.5 km/h 95% 0 mm
03:40 12.4 °C 11.7 °C 1000.2 hPa SW 4.8 km/h 14.5 km/h 95% 0 mm
03:45 12.4 °C 11.6 °C 1000.2 hPa SSW 3.2 km/h 14.5 km/h 95% 0 mm
03:50 12.3 °C 11.6 °C 1000.2 hPa SSW 1.6 km/h 11.3 km/h 95% 0 mm
03:55 12.3 °C 11.6 °C 1000.2 hPa SSW 4.8 km/h 16.1 km/h 95% 0 mm
04:00 12.3 °C 11.6 °C 1000.2 hPa SSW 3.2 km/h 16.1 km/h 95% 0 mm
04:05 12.3 °C 11.5 °C 1000.2 hPa SSW 4.8 km/h 12.9 km/h 95% 0 mm
04:10 12.3 °C 11.5 °C 1000.2 hPa SSW 1.6 km/h 16.1 km/h 95% 0 mm
04:15 12.2 °C 11.4 °C 1000.2 hPa SSW 6.4 km/h 16.1 km/h 95% 0 mm
04:20 12.2 °C 11.4 °C 1000.2 hPa SSW 4.8 km/h 14.5 km/h 95% 0 mm
04:25 12.1 °C 11.3 °C 1000.2 hPa SSW 3.2 km/h 12.9 km/h 95% 0.3 mm
04:30 12.1 °C 11.3 °C 1000.2 hPa SSW 1.6 km/h 11.3 km/h 95% 0.3 mm
04:35 12.1 °C 11.3 °C 1000.2 hPa SSW 3.2 km/h 20.9 km/h 95% 0.3 mm
04:40 12.1 °C 11.3 °C 1000.2 hPa SSW 3.2 km/h 20.9 km/h 95% 0.3 mm
04:45 12.1 °C 11.3 °C 1000.6 hPa SSW 3.2 km/h 16.1 km/h 95% 0.3 mm
04:50 12.1 °C 11.3 °C 1000.6 hPa SSW 6.4 km/h 16.1 km/h 95% 0.3 mm
04:55 12.1 °C 11.3 °C 1000.6 hPa SSW 3.2 km/h 16.1 km/h 95% 0.3 mm
05:00 12 °C 11.2 °C 1000.6 hPa SSW 4.8 km/h 14.5 km/h 95% 0.3 mm
05:05 11.9 °C 11.3 °C 1000.6 hPa SW 3.2 km/h 11.3 km/h 96% 0.3 mm
05:10 11.9 °C 11.3 °C 1000.6 hPa Calm   11.3 km/h 96% 0.3 mm
05:15 11.9 °C 11.3 °C 1000.6 hPa SSW 4.8 km/h 16.1 km/h 96% 0.3 mm
05:20 11.9 °C 11.3 °C 1000.2 hPa SSW 3.2 km/h 16.1 km/h 96% 0.3 mm
05:25 11.9 °C 11.3 °C 1000.2 hPa SW 3.2 km/h 12.9 km/h 96% 0.3 mm
05:30 11.9 °C 11.3 °C 1000.2 hPa SW 6.4 km/h 17.7 km/h 96% 0.3 mm
05:35 11.9 °C 11.3 °C 1000.2 hPa SSW 8 km/h 17.7 km/h 96% 0.3 mm
05:45 11.9 °C 11.3 °C 1000.2 hPa SSW 3.2 km/h 16.1 km/h 96% 0.3 mm
05:50 11.9 °C 11.3 °C 1000.2 hPa SSW 4.8 km/h 12.9 km/h 96% 0.3 mm
05:55 11.9 °C 11.3 °C 999.9 hPa SSW 4.8 km/h 19.3 km/h 96% 0.3 mm
06:00 12 °C 11.4 °C 1000.2 hPa SSW 4.8 km/h 19.3 km/h 96% 0.3 mm
06:05 12 °C 11.2 °C 1000.2 hPa SSW 3.2 km/h 16.1 km/h 95% 0.3 mm
06:10 12 °C 11.2 °C 999.9 hPa SSW 6.4 km/h 12.9 km/h 95% 0.3 mm
06:15 12 °C 11.2 °C 999.9 hPa SW 8 km/h 19.3 km/h 95% 0.3 mm
06:20 12 °C 11.2 °C 1000.2 hPa South 1.6 km/h 19.3 km/h 95% 0.3 mm
06:25 11.9 °C 11.2 °C 1000.2 hPa SSW 3.2 km/h 12.9 km/h 95% 0.3 mm
06:30 11.9 °C 11.1 °C 1000.2 hPa South 1.6 km/h 12.9 km/h 95% 0.3 mm
06:35 11.8 °C 11.1 °C 1000.2 hPa South 1.6 km/h 14.5 km/h 95% 0.3 mm
06:40 11.9 °C 11.1 °C 1000.2 hPa SSW 3.2 km/h 14.5 km/h 95% 0.3 mm
06:45 11.8 °C 11.1 °C 1000.2 hPa WSW 1.6 km/h 14.5 km/h 95% 0.3 mm
06:50 11.9 °C 11.1 °C 999.9 hPa SSW 8 km/h 12.9 km/h 95% 0.3 mm
06:55 11.9 °C 11.2 °C 1000.2 hPa SW 3.2 km/h 16.1 km/h 95% 0.3 mm
07:00 12 °C 11.2 °C 1000.6 hPa SSW 6.4 km/h 16.1 km/h 95% 0.3 mm
07:05 12.1 °C 11.3 °C 1000.6 hPa SW 4.8 km/h 16.1 km/h 95% 0.3 mm
07:10 12.2 °C 11.4 °C 1000.6 hPa SW 6.4 km/h 16.1 km/h 95% 0.3 mm
07:15 12.2 °C 11.4 °C 1000.6 hPa SSW 8 km/h 14.5 km/h 95% 0.3 mm
07:20 12.2 °C 11.4 °C 1000.6 hPa SSW 9.7 km/h 19.3 km/h 95% 0.3 mm
07:25 12.2 °C 11.4 °C 1000.6 hPa SSW 4.8 km/h 19.3 km/h 95% 0.3 mm
07:30 12.2 °C 11.4 °C 1000.6 hPa SSW 3.2 km/h 16.1 km/h 95% 0.3 mm
07:35 12.2 °C 11.4 °C 1000.6 hPa SSW 6.4 km/h 16.1 km/h 95% 0.3 mm
07:40 12.2 °C 11.4 °C 1000.6 hPa SSW 4.8 km/h 12.9 km/h 95% 0.3 mm
07:45 12.2 °C 11.4 °C 1000.6 hPa SSW 6.4 km/h 20.9 km/h 95% 0.3 mm
07:50 12.3 °C 11.5 °C 1000.6 hPa SSW 8 km/h 22.5 km/h 95% 0.3 mm
07:55 12.4 °C 11.6 °C 1000.6 hPa SW 8 km/h 22.5 km/h 95% 0.3 mm
08:00 12.6 °C 11.8 °C 1000.2 hPa SSW 1.6 km/h 22.5 km/h 95% 0.3 mm
08:05 12.7 °C 11.9 °C 1000.2 hPa SSW 6.4 km/h 19.3 km/h 95% 0.3 mm
08:10 12.8 °C 12 °C 1000.6 hPa SSW 3.2 km/h 24.1 km/h 95% 0.3 mm
08:15 12.8 °C 11.9 °C 1000.6 hPa SSW 4.8 km/h 24.1 km/h 94% 0.3 mm
08:25 13 °C 11.9 °C 1000.6 hPa SSW 4.8 km/h 20.9 km/h 93% 0.3 mm
08:30 12.9 °C 11.7 °C 1000.6 hPa SSW 11.3 km/h 24.1 km/h 92% 0.3 mm
08:40 13 °C 11.6 °C 1000.6 hPa SSW 8 km/h 19.3 km/h 91% 0.3 mm
08:45 13.1 °C 11.7 °C 1000.6 hPa SSW 3.2 km/h 17.7 km/h 91% 0.3 mm
08:50 13.2 °C 11.7 °C 1000.6 hPa SSW 3.2 km/h 16.1 km/h 91% 0.3 mm
08:55 13.2 °C 11.6 °C 1000.6 hPa SSW 3.2 km/h 19.3 km/h 90% 0.3 mm
09:00 13.2 °C 11.6 °C 1000.6 hPa SW 1.6 km/h 19.3 km/h 90% 0.3 mm
09:05 13.3 °C 11.9 °C 1000.6 hPa SSW 4.8 km/h 19.3 km/h 91% 0.3 mm
09:10 13.6 °C 11.6 °C 1000.6 hPa SSW 8 km/h 22.5 km/h 88% 0.3 mm
09:15 13.6 °C 11.4 °C 1000.6 hPa SSW 4.8 km/h 25.7 km/h 87% 0.3 mm
09:20 13.6 °C 11.4 °C 1000.6 hPa SSE 3.2 km/h 25.7 km/h 87% 0.3 mm
09:25 13.5 °C 11.2 °C 1000.9 hPa SSW 9.7 km/h 24.1 km/h 86% 0.3 mm
09:30 13.5 °C 11.2 °C 1000.9 hPa SW 9.7 km/h 24.1 km/h 86% 0.3 mm
09:35 13.7 °C 11.4 °C 1000.9 hPa SW 6.4 km/h 24.1 km/h 86% 0.3 mm
09:40 13.8 °C 11.6 °C 1000.9 hPa SW 11.3 km/h 20.9 km/h 86% 0.3 mm
09:45 14 °C 11.7 °C 1000.9 hPa SSW 9.7 km/h 25.7 km/h 86% 0.3 mm
09:50 14.1 °C 11.8 °C 1000.9 hPa SW 4.8 km/h 25.7 km/h 86% 0.3 mm
09:55 14.2 °C 11.5 °C 1000.9 hPa SW 11.3 km/h 30.6 km/h 84% 0.3 mm
10:00 14.6 °C 11.9 °C 1001.2 hPa SSW 4.8 km/h 30.6 km/h 84% 0.3 mm
10:05 14.7 °C 11.8 °C 1001.2 hPa SSW 6.4 km/h 24.1 km/h 83% 0.3 mm
10:10 14.5 °C 11.4 °C 1001.2 hPa SW 4.8 km/h 24.1 km/h 82% 0.3 mm
10:15 14.4 °C 11.4 °C 1001.2 hPa SSW 4.8 km/h 19.3 km/h 82% 0.3 mm
10:20 14.4 °C 11.4 °C 1001.2 hPa SW 8 km/h 19.3 km/h 82% 0.3 mm
10:25 14.4 °C 11.2 °C 1001.2 hPa SSW 11.3 km/h 22.5 km/h 81% 0.3 mm
10:30 14.5 °C 11.3 °C 1000.9 hPa SSW 9.7 km/h 22.5 km/h 81% 0.3 mm
10:40 14.6 °C 11.3 °C 1000.9 hPa SSW 9.7 km/h 22.5 km/h 81% 0.3 mm
10:45 14.8 °C 11.7 °C 1000.9 hPa SSW 4.8 km/h 22.5 km/h 82% 0.3 mm
10:50 15 °C 11.8 °C 1000.9 hPa South 11.3 km/h 24.1 km/h 81% 0.3 mm
10:55 15 °C 11.8 °C 1000.9 hPa SSW 11.3 km/h 30.6 km/h 81% 0.3 mm
11:00 15.1 °C 11.6 °C 1000.9 hPa SSW 8 km/h 30.6 km/h 80% 0.3 mm
11:05 15.6 °C 12.1 °C 1000.9 hPa SW 9.7 km/h 30.6 km/h 80% 0.3 mm
11:10 16.2 °C 12.5 °C 1000.9 hPa SSW 9.7 km/h 30.6 km/h 79% 0.3 mm
11:15 16.8 °C 12.7 °C 1000.9 hPa SSW 8 km/h 22.5 km/h 77% 0.3 mm
11:25 17.2 °C 12.6 °C 1000.9 hPa SW 11.3 km/h 27.4 km/h 74% 0.3 mm
11:30 17.2 °C 12.3 °C 1000.9 hPa SSW 12.9 km/h 27.4 km/h 73% 0.3 mm
11:40 16.8 °C 12.5 °C 1001.2 hPa SSW 14.5 km/h 29 km/h 76% 0.3 mm
11:45 17 °C 12.3 °C 1001.2 hPa SSW 12.9 km/h 29 km/h 74% 0.3 mm
11:50 17.3 °C 12.8 °C 1001.2 hPa SW 9.7 km/h 29 km/h 75% 0.3 mm
11:55 17.4 °C 12.6 °C 1001.2 hPa SW 9.7 km/h 22.5 km/h 73% 0.3 mm
12:00 17.7 °C 12.8 °C 1001.2 hPa SSW 12.9 km/h 24.1 km/h 73% 0.3 mm
12:05 17.9 °C 13 °C 1001.2 hPa SSW 8 km/h 32.2 km/h 73% 0.3 mm
12:10 18.1 °C 13.2 °C 1001.2 hPa SW 12.9 km/h 32.2 km/h 73% 0.3 mm
12:15 18 °C 12.9 °C 1001.2 hPa SSW 8 km/h 33.8 km/h 72% 0.3 mm
12:20 18.3 °C 12.9 °C 1001.2 hPa SSW 8 km/h 33.8 km/h 71% 0.3 mm
12:25 18.4 °C 13.3 °C 1001.2 hPa SSW 8 km/h 29 km/h 72% 0.3 mm
12:35 18.8 °C 13.2 °C 1000.9 hPa SW 11.3 km/h 25.7 km/h 70% 0.3 mm
12:40 18.7 °C 12.9 °C 1001.2 hPa SW 12.9 km/h 25.7 km/h 69% 0.3 mm
12:45 18.8 °C 13.4 °C 1001.2 hPa SSW 9.7 km/h 22.5 km/h 71% 0.3 mm
12:50 18.9 °C 13.3 °C 1001.2 hPa SSW 11.3 km/h 22.5 km/h 70% 0.3 mm
12:55 18.9 °C 12.7 °C 1001.2 hPa SW 16.1 km/h 30.6 km/h 67% 0.3 mm
13:00 18.9 °C 13.1 °C 1001.2 hPa South 6.4 km/h 30.6 km/h 69% 0.3 mm
13:05 18.9 °C 13.1 °C 1001.2 hPa SSW 6.4 km/h 20.9 km/h 69% 0.3 mm
13:10 18.9 °C 13.1 °C 1001.2 hPa SSW 4.8 km/h 20.9 km/h 69% 0.3 mm
13:15 18.8 °C 12.5 °C 1001.2 hPa SW 11.3 km/h 22.5 km/h 67% 0.3 mm
13:20 18.7 °C 13.2 °C 1001.2 hPa SSW 8 km/h 22.5 km/h 70% 0.3 mm
13:25 19.1 °C 13.2 °C 1001.2 hPa SSW 6.4 km/h 16.1 km/h 69% 0.3 mm
13:30 19.4 °C 13.1 °C 1001.2 hPa South 9.7 km/h 22.5 km/h 67% 0.3 mm
13:35 19.3 °C 13.1 °C 1001.2 hPa SW 6.4 km/h 25.7 km/h 67% 0.3 mm
13:40 19.3 °C 13.1 °C 1001.2 hPa SSW 3.2 km/h 25.7 km/h 67% 0.3 mm
13:45 19.8 °C 12.8 °C 1001.2 hPa SSW 9.7 km/h 20.9 km/h 64% 0.3 mm
13:50 19.9 °C 12.4 °C 1001.2 hPa SSW 11.3 km/h 22.5 km/h 62% 0.3 mm
13:55 19.4 °C 12.7 °C 1001.2 hPa SSW 8 km/h 25.7 km/h 65% 0.3 mm
14:00 19.1 °C 12.4 °C 1001.2 hPa SSW 1.6 km/h 25.7 km/h 65% 0.3 mm
14:10 19.6 °C 13.1 °C 1001.2 hPa SW 8 km/h 20.9 km/h 66% 0.3 mm
14:15 20.2 °C 12.7 °C 1001.2 hPa SW 4.8 km/h 20.9 km/h 62% 0.3 mm
14:20 20.5 °C 12.7 °C 1001.2 hPa WSW 11.3 km/h 20.9 km/h 61% 0.3 mm
14:25 20.5 °C 13 °C 1001.2 hPa SW 6.4 km/h 20.9 km/h 62% 0.3 mm
14:30 20.3 °C 12.8 °C 1001.2 hPa SSW 3.2 km/h 19.3 km/h 62% 0.3 mm
14:35 20 °C 12.7 °C 1001.2 hPa SSW 6.4 km/h 22.5 km/h 63% 0.3 mm
14:45 19.4 °C 12.7 °C 1001.2 hPa SSW 3.2 km/h 19.3 km/h 65% 0.3 mm
14:50 19.4 °C 12.2 °C 1001.2 hPa SW 6.4 km/h 19.3 km/h 63% 0.3 mm
14:55 19.7 °C 12.4 °C 1001.2 hPa SSW 8 km/h 19.3 km/h 63% 0.3 mm
15:00 20 °C 12.7 °C 1001.2 hPa SSW 1.6 km/h 17.7 km/h 63% 0.3 mm
15:10 19.5 °C 12.3 °C 1001.2 hPa SSW 3.2 km/h 19.3 km/h 63% 0.3 mm
15:15 19.1 °C 11.9 °C 1001.6 hPa SW 11.3 km/h 17.7 km/h 63% 0.3 mm
15:20 18.9 °C 12.2 °C 1001.6 hPa SSW 6.4 km/h 17.7 km/h 65% 0.3 mm
15:25 19.1 °C 12.6 °C 1001.6 hPa SW 1.6 km/h 12.9 km/h 66% 0.3 mm
15:30 19.2 °C 12.5 °C 1001.6 hPa SW 1.6 km/h 14.5 km/h 65% 0.3 mm
15:35 19.6 °C 13.1 °C 1001.6 hPa WSW 1.6 km/h 14.5 km/h 66% 0.3 mm
15:40 19.8 °C 12.8 °C 1001.6 hPa SW 6.4 km/h 14.5 km/h 64% 0.3 mm
15:45 19.3 °C 12.3 °C 1001.6 hPa SSW 6.4 km/h 14.5 km/h 64% 0.3 mm
15:50 19 °C 12.3 °C 1001.6 hPa SSW 1.6 km/h 14.5 km/h 65% 0.3 mm
15:55 18.9 °C 11.9 °C 1001.6 hPa SW 9.7 km/h 19.3 km/h 64% 0.3 mm
16:00 18.9 °C 12 °C 1001.6 hPa SW 4.8 km/h 19.3 km/h 64% 0.3 mm
16:05 19.1 °C 12.6 °C 1001.6 hPa SSW 1.6 km/h 16.1 km/h 66% 0.3 mm
16:10 19.3 °C 12.6 °C 1001.6 hPa Calm   16.1 km/h 65% 0.3 mm
16:20 19.1 °C 12.3 °C 1001.6 hPa SSW 4.8 km/h 20.9 km/h 65% 0.3 mm
16:25 19 °C 11.8 °C 1001.9 hPa SSW 1.6 km/h 22.5 km/h 63% 0.3 mm
16:30 18.9 °C 12.4 °C 1001.9 hPa Calm   22.5 km/h 66% 0.3 mm
16:40 18.8 °C 12.6 °C 1001.9 hPa Calm   9.7 km/h 67% 0.3 mm
16:45 18.8 °C 12.6 °C 1001.9 hPa Calm   8 km/h 67% 0.3 mm
16:55 19 °C 12.5 °C 1002.3 hPa Calm   11.3 km/h 66% 0.3 mm
17:00 18.8 °C 12.5 °C 1002.3 hPa Calm   11.3 km/h 67% 0.3 mm
17:05 18.7 °C 12.7 °C 1002.3 hPa Calm   8 km/h 68% 0.3 mm
17:10 18.7 °C 12.9 °C 1002.3 hPa Calm   6.4 km/h 69% 0.3 mm
17:15 18.6 °C 13 °C 1002.3 hPa SSW 1.6 km/h 8 km/h 70% 0.3 mm
17:20 18.4 °C 13.5 °C 1002.3 hPa Calm   8 km/h 73% 0.3 mm
17:25 18.4 °C 12.4 °C 1002.3 hPa SSW 3.2 km/h 8 km/h 68% 0.3 mm
17:30 18.4 °C 12.7 °C 1002.3 hPa Calm   8 km/h 69% 0.3 mm
17:35 18.5 °C 12.7 °C 1001.9 hPa SSW 1.6 km/h 4.8 km/h 69% 0.3 mm
17:40 18.7 °C 12.9 °C 1002.3 hPa Calm   8 km/h 69% 0.3 mm
17:45 18.7 °C 12.9 °C 1002.3 hPa WSW 3.2 km/h 9.7 km/h 69% 0.3 mm
17:50 18.3 °C 12.3 °C 1002.3 hPa Calm   9.7 km/h 68% 0.3 mm
17:55 18.1 °C 13.2 °C 1002.3 hPa Calm   4.8 km/h 73% 0.3 mm
18:00 17.7 °C 13.2 °C 1002.3 hPa Calm     75% 0.3 mm
18:05 17.3 °C 13.3 °C 1002.6 hPa Calm   1.6 km/h 77% 0.3 mm
18:10 16.8 °C 13 °C 1002.3 hPa Calm   1.6 km/h 78% 0.3 mm
18:20 15.9 °C 12.5 °C 1002.6 hPa Calm   1.6 km/h 80% 0.3 mm
18:25 15.6 °C 12.3 °C 1002.6 hPa Calm   1.6 km/h 81% 0.3 mm
18:30 15.3 °C 12.4 °C 1002.6 hPa Calm   1.6 km/h 83% 0.3 mm
18:40 14.9 °C 12.1 °C 1002.6 hPa Calm     83% 0.3 mm
18:50 14.4 °C 11.8 °C 1002.9 hPa Calm   1.6 km/h 84% 0.3 mm
18:55 14.3 °C 11.7 °C 1002.9 hPa Calm   1.6 km/h 84% 0.3 mm
19:00 14.2 °C 11.4 °C 1002.9 hPa Calm   1.6 km/h 83% 0.3 mm
19:05 14.1 °C 11.4 °C 1002.9 hPa Calm     84% 0.3 mm
19:10 14.1 °C 11.6 °C 1002.9 hPa Calm   3.2 km/h 85% 0.3 mm
19:15 14.1 °C 11.6 °C 1002.9 hPa Calm   3.2 km/h 85% 0.3 mm
19:20 14.1 °C 11.6 °C 1002.9 hPa Calm     85% 0.3 mm
19:25 14.1 °C 11.6 °C 1002.9 hPa Calm   1.6 km/h 85% 0.3 mm
19:30 14.1 °C 11.8 °C 1002.9 hPa Calm   1.6 km/h 86% 0.3 mm
19:40 14 °C 11.7 °C 1002.9 hPa Calm   1.6 km/h 86% 0.3 mm
19:45 13.9 °C 11.7 °C 1002.9 hPa Calm     86% 0.3 mm
19:55 13.9 °C 11.6 °C 1002.9 hPa Calm     86% 0.3 mm
20:00 13.8 °C 11.7 °C 1003.3 hPa Calm     87% 0.3 mm
20:05 13.8 °C 11.7 °C 1002.9 hPa Calm     87% 0.3 mm
20:10 13.7 °C 11.6 °C 1003.3 hPa Calm     87% 0.3 mm
20:15 13.7 °C 11.6 °C 1003.3 hPa Calm     87% 0.3 mm
20:20 13.7 °C 11.6 °C 1003.3 hPa Calm     87% 0.3 mm
20:25 13.7 °C 11.6 °C 1003.3 hPa Calm     87% 0.3 mm
20:30 13.6 °C 11.7 °C 1003.6 hPa Calm     88% 0.3 mm
20:35 13.6 °C 11.6 °C 1003.6 hPa Calm     88% 0.3 mm
20:40 13.5 °C 11.6 °C 1003.6 hPa Calm     88% 0.3 mm
20:45 13.6 °C 11.6 °C 1003.6 hPa Calm     88% 0.3 mm
20:55 13.6 °C 11.8 °C 1003.6 hPa Calm     89% 0.3 mm
21:00 13.6 °C 11.8 °C 1003.6 hPa Calm     89% 0.3 mm
21:05 13.6 °C 11.8 °C 1003.9 hPa Calm     89% 0.3 mm
21:10 13.6 °C 11.8 °C 1003.9 hPa Calm     89% 0.3 mm
21:15 13.7 °C 11.9 °C 1003.9 hPa Calm   1.6 km/h 89% 0.3 mm
21:20 13.8 °C 12 °C 1003.6 hPa Calm   1.6 km/h 89% 0.3 mm
21:25 13.8 °C 12.1 °C 1003.9 hPa Calm   1.6 km/h 89% 0.3 mm
21:30 13.7 °C 11.9 °C 1003.9 hPa Calm     89% 0.3 mm
21:35 13.7 °C 11.9 °C 1003.9 hPa Calm     89% 0.3 mm
21:40 13.7 °C 11.9 °C 1003.9 hPa Calm   1.6 km/h 89% 0.3 mm
21:45 13.7 °C 11.9 °C 1003.9 hPa Calm   1.6 km/h 89% 0.3 mm
21:50 13.7 °C 11.7 °C 1003.9 hPa Calm     88% 0.3 mm
22:00 13.7 °C 11.9 °C 1003.9 hPa Calm     89% 0.3 mm
22:10 13.6 °C 11.8 °C 1003.9 hPa Calm   1.6 km/h 89% 0.3 mm
22:15 13.6 °C 11.8 °C 1004.3 hPa Calm   1.6 km/h 89% 0.3 mm
22:20 13.6 °C 11.7 °C 1004.3 hPa Calm   8 km/h 88% 0.3 mm
22:30 13.8 °C 11.8 °C 1004.3 hPa Calm   1.6 km/h 88% 0.3 mm
22:35 13.8 °C 11.9 °C 1004.3 hPa Calm   1.6 km/h 88% 0.3 mm
22:40 13.8 °C 11.9 °C 1004.3 hPa Calm   1.6 km/h 88% 0.3 mm
22:45 13.8 °C 11.9 °C 1004.6 hPa Calm     88% 0.3 mm
22:50 13.8 °C 11.8 °C 1004.3 hPa Calm   4.8 km/h 88% 0.3 mm
22:55 13.8 °C 11.8 °C 1004.3 hPa Calm   4.8 km/h 88% 0.3 mm
23:00 13.7 °C 11.6 °C 1004.3 hPa Calm     87% 0.3 mm
23:05 13.7 °C 11.7 °C 1004.3 hPa Calm     88% 0.3 mm
23:10 13.6 °C 11.7 °C 1004.3 hPa Calm   1.6 km/h 88% 0.3 mm
23:15 13.6 °C 11.7 °C 1004.3 hPa Calm   4.8 km/h 88% 0.3 mm
23:20 13.7 °C 11.7 °C 1004.3 hPa Calm   8 km/h 88% 0.3 mm
23:25 13.7 °C 11.8 °C 1004.3 hPa NE 1.6 km/h 8 km/h 88% 0.3 mm
23:30 13.8 °C 11.7 °C 1004.3 hPa Calm   11.3 km/h 87% 0.3 mm
23:35 13.9 °C 11.6 °C 1004.6 hPa Calm   11.3 km/h 86% 0.3 mm
23:40 14 °C 11.5 °C 1004.3 hPa NNE 1.6 km/h 9.7 km/h 85% 0.3 mm
23:45 14.1 °C 11.6 °C 1004.6 hPa NNE 1.6 km/h 9.7 km/h 85% 0.3 mm
23:50 14.1 °C 11.4 °C 1004.6 hPa NNE 1.6 km/h 9.7 km/h 84% 0.3 mm
23:55 14.2 °C 11.5 °C 1004.6 hPa Calm   9.7 km/h 84% 0.3 mm
Westford Weather
Compliments of Weather Underground

 
 
Current Radar Loop:

Copyright © WestfordWeather.net 2007-2014. All rights reserved.